Home > Time Zones > World Clock > Weather > Serbia > Niš > Past weeks

Flag Weather past 2 weeks in Niš, Serbia

Now
45 °F

Passing clouds.


Feels Like: 41 °F
Forecast: 40 / 55 °F
Wind: 6 mph from Southeast

Location: Nis Airport

Current Time: Nov 28, 2014 at 8:42:28 PM

Latest Report: Nov 28, 2014 at 8:00 PM


Visibility: N/A

Pressure: 30.15 "Hg

Humidity: 76%

Dew point: 37 °F

Location of NišLocation

Historic Weather in Niš — Graph

°F

Niš temperature yesterday

Maximum temperature yesterday: 39 °F (at 1:00 PM)
Minimum temperature yesterday: 27 °F (at 12:00 AM)
Average temperature yesterday: 36 °F

Past Weeks' High & Low Weather Summary

 TemperatureHumidityPressure
High64 °F (Nov 17, 1:00 PM)100% (Nov 15, 4:00 AM)30.42 "Hg (Nov 15, 4:00 AM)
Low27 °F (Nov 26, 11:30 PM)46% (Nov 24, 1:00 PM)29.86 "Hg (Nov 13, 7:00 PM)
Average45 °F81%30.13 "Hg
* Reported Nov 13 7:00 PM — Nov 28 7:30 PM, Niš, Weather by CustomWeather, © 2014

Note: Actual official high and low records may vary slightly from our data, if they occured in-between our weather recording intervals... More about our weather records

Advertising

Niš weather history for previous 24 hours

 ConditionsComfort  
Time TempWeatherWind HumidityBarometerVisibility
7:30 PM
Nov 28
45 °FPassing clouds.5 mph76%30.15 "HgN/A
7:00 PM46 °FPassing clouds.6 mph71%30.15 "HgN/A
6:30 PM46 °FPassing clouds.6 mph76%30.15 "HgN/A
6:00 PM46 °FPassing clouds.5 mph76%30.15 "HgN/A
5:30 PM48 °FPassing clouds.6 mph71%30.15 "HgN/A
5:00 PM48 °FPassing clouds.5 mph71%30.12 "HgN/A
4:30 PM50 °FPassing clouds.3 mph67%30.12 "HgN/A
4:00 PM52 °FPassing clouds.5 mph62%30.12 "HgN/A
3:30 PM52 °FScattered clouds.3 mph67%30.12 "HgN/A
3:00 PM52 °FScattered clouds.8 mph62%30.12 "HgN/A
2:30 PM54 °FScattered clouds.3 mph58%30.12 "HgN/A
2:00 PM54 °FScattered clouds.6 mph58%30.12 "HgN/A
1:30 PM54 °FScattered clouds.7 mph58%30.12 "HgN/A
1:00 PM52 °FScattered clouds.8 mph62%30.12 "HgN/A
12:30 PM52 °FScattered clouds.8 mph62%30.12 "HgN/A
12:00 PM52 °FScattered clouds.8 mph62%30.15 "HgN/A
11:30 AM50 °FPassing clouds.8 mph62%30.15 "HgN/A
11:00 AM48 °FPassing clouds.9 mph62%30.15 "HgN/A
10:30 AM46 °FPassing clouds.8 mph66%30.15 "HgN/A
10:00 AM46 °FPassing clouds.9 mph66%30.18 "HgN/A
9:30 AM45 °FPassing clouds.9 mph66%30.18 "HgN/A
9:00 AM43 °FPassing clouds.9 mph71%30.18 "HgN/A
8:30 AM43 °FPassing clouds.8 mph71%30.15 "HgN/A
8:00 AM41 °FPassing clouds.5 mph76%30.15 "HgN/A
7:30 AM41 °FPassing clouds.8 mph76%30.15 "HgN/A
7:00 AM41 °FScattered clouds.8 mph76%30.15 "HgN/A
6:30 AM41 °FPassing clouds.9 mph70%30.15 "HgN/A
6:00 AM41 °FPartly cloudy.10 mph70%30.15 "HgN/A
5:30 AM41 °FPartly cloudy.12 mph70%30.12 "HgN/A
5:00 AM41 °FPartly cloudy.10 mph70%30.12 "HgN/A
4:30 AM41 °FPartly cloudy.12 mph70%30.12 "HgN/A
4:00 AM41 °FPartly cloudy.10 mph70%30.12 "HgN/A
3:30 AM41 °FPartly cloudy.12 mph70%30.12 "Hg4 mi
3:00 AM39 °FPartly cloudy.10 mph75%30.12 "Hg4 mi
2:30 AM39 °FPartly cloudy.13 mph75%30.12 "Hg5 mi
2:00 AM39 °FPartly cloudy.12 mph75%30.12 "Hg5 mi
1:30 AM39 °FPartly cloudy.10 mph75%30.12 "Hg5 mi
1:00 AM39 °FPartly cloudy.12 mph75%30.12 "HgN/A
12:30 AM39 °FPartly cloudy.10 mph75%30.12 "HgN/A
12:00 AM39 °FPartly cloudy.12 mph75%30.15 "HgN/A
11:30 PM
Nov 27
39 °FPartly cloudy.9 mph75%30.15 "HgN/A
11:00 PM39 °FPartly cloudy.8 mph75%30.15 "HgN/A
10:30 PM39 °FPartly cloudy.7 mph75%30.15 "HgN/A
10:00 PM39 °FLight rain. Partly cloudy.7 mph75%30.15 "HgN/A
9:30 PM39 °FLight rain. Passing clouds.10 mph75%30.12 "HgN/A
9:00 PM39 °FLight rain. Passing clouds.10 mph75%30.12 "HgN/A
8:30 PM37 °FLight rain. Passing clouds.7 mph87%30.15 "Hg5 mi
8:00 PM37 °FLight rain. Passing clouds.5 mph81%30.12 "HgN/A
Weather by CustomWeather, © 2014

See weather overviewHow to use our weather pages